TimeEST,TemperatureF,Dew PointF,Humidity,Sea Level PressureIn,VisibilityMPH,Wind Direction,Wind SpeedMPH,Gust SpeedMPH,PrecipitationIn,Events,Conditions,WindDirDegrees,DateUTC
12:23 AM,30.2,30.2,100,30.25,10.0,Calm,Calm,-,N/A,,Clear,0,2012-12-06 05:23:00
12:56 AM,30.2,28.4,93,30.24,10.0,Calm,Calm,-,N/A,,Clear,0,2012-12-06 05:56:00
1:16 AM,30.2,30.2,100,30.24,10.0,Calm,Calm,-,N/A,,Clear,0,2012-12-06 06:16:00
2:16 AM,28.4,28.4,100,30.25,10.0,Calm,Calm,-,N/A,,Clear,0,2012-12-06 07:16:00
2:36 AM,28.4,28.4,100,30.26,10.0,Calm,Calm,-,N/A,,Clear,0,2012-12-06 07:36:00
3:04 AM,28.4,28.4,100,30.26,10.0,Calm,Calm,-,N/A,,Clear,0,2012-12-06 08:04:00
3:26 AM,28.4,28.4,100,30.25,10.0,Calm,Calm,-,N/A,,Clear,0,2012-12-06 08:26:00
4:24 AM,26.6,26.6,100,30.25,10.0,Calm,Calm,-,N/A,,Clear,0,2012-12-06 09:24:00
4:36 AM,26.6,26.6,100,30.25,10.0,Calm,Calm,-,N/A,,Clear,0,2012-12-06 09:36:00
5:16 AM,26.6,26.6,100,30.26,10.0,Calm,Calm,-,N/A,,Clear,0,2012-12-06 10:16:00
5:36 AM,26.6,26.6,100,30.26,10.0,Calm,Calm,-,N/A,,Clear,0,2012-12-06 10:36:00
5:56 AM,26.6,26.6,100,30.27,10.0,Calm,Calm,-,N/A,,Clear,0,2012-12-06 10:56:00
6:29 AM,26.6,26.6,100,30.28,10.0,Calm,Calm,-,N/A,,Clear,0,2012-12-06 11:29:00
6:46 AM,26.6,26.6,100,30.28,10.0,Calm,Calm,-,N/A,,Clear,0,2012-12-06 11:46:00
7:10 AM,24.8,24.8,100,30.29,10.0,Calm,Calm,-,N/A,,Clear,0,2012-12-06 12:10:00
7:27 AM,24.8,24.8,100,30.30,10.0,Calm,Calm,-,N/A,,Clear,0,2012-12-06 12:27:00
7:47 AM,26.6,26.6,100,30.30,7.0,Calm,Calm,-,N/A,,Clear,0,2012-12-06 12:47:00
7:56 AM,26.6,26.6,100,30.30,7.0,Calm,Calm,-,N/A,,Clear,0,2012-12-06 12:56:00
8:26 AM,30.2,30.2,100,30.31,10.0,Calm,Calm,-,N/A,,Clear,0,2012-12-06 13:26:00
8:35 AM,32.0,32.0,100,30.31,10.0,Calm,Calm,-,N/A,,Clear,0,2012-12-06 13:35:00
8:41 AM,32.0,32.0,100,30.31,10.0,Calm,Calm,-,N/A,,Clear,0,2012-12-06 13:41:00
8:55 AM,35.6,33.8,93,30.31,10.0,Calm,Calm,-,N/A,,Clear,0,2012-12-06 13:55:00
9:15 AM,37.4,33.8,87,30.31,10.0,East,5.8,-,N/A,,Clear,100,2012-12-06 14:15:00
9:35 AM,37.4,33.8,87,30.31,10.0,ESE,6.9,-,N/A,,Clear,110,2012-12-06 14:35:00
9:55 AM,37.4,33.8,87,30.31,10.0,ESE,4.6,-,N/A,,Clear,110,2012-12-06 14:55:00
10:15 AM,39.2,33.8,81,30.31,10.0,ESE,3.5,-,N/A,,Clear,110,2012-12-06 15:15:00
10:35 AM,39.2,33.8,81,30.30,10.0,ESE,4.6,-,N/A,,Clear,120,2012-12-06 15:35:00
10:55 AM,41.0,33.8,76,30.30,10.0,East,3.5,-,N/A,,Clear,100,2012-12-06 15:55:00
11:15 AM,42.8,33.8,70,30.29,10.0,South,3.5,-,N/A,,Mostly Cloudy,170,2012-12-06 16:15:00
11:35 AM,42.8,33.8,70,30.27,10.0,SE,3.5,-,N/A,,Mostly Cloudy,140,2012-12-06 16:35:00
11:55 AM,44.6,33.8,66,30.26,10.0,Calm,Calm,-,N/A,,Clear,0,2012-12-06 16:55:00
12:15 PM,46.4,35.6,66,30.25,10.0,SE,6.9,-,N/A,,Clear,130,2012-12-06 17:15:00
12:35 PM,44.6,33.8,66,30.24,10.0,Calm,Calm,-,N/A,,Mostly Cloudy,0,2012-12-06 17:35:00
12:55 PM,46.4,35.6,66,30.23,10.0,Calm,Calm,-,N/A,,Overcast,0,2012-12-06 17:55:00
1:15 PM,48.2,35.6,62,30.23,10.0,ESE,3.5,-,N/A,,Mostly Cloudy,110,2012-12-06 18:15:00
1:35 PM,46.4,35.6,66,30.22,10.0,ESE,3.5,-,N/A,,Overcast,120,2012-12-06 18:35:00
1:55 PM,48.2,35.6,62,30.21,10.0,Calm,Calm,-,N/A,,Overcast,0,2012-12-06 18:55:00
2:15 PM,48.2,35.6,62,30.21,10.0,ENE,4.6,-,N/A,,Overcast,70,2012-12-06 19:15:00
2:35 PM,48.2,35.6,62,30.20,10.0,SE,4.6,-,N/A,,Overcast,130,2012-12-06 19:35:00
2:55 PM,48.2,35.6,62,30.20,10.0,ESE,4.6,-,N/A,,Mostly Cloudy,110,2012-12-06 19:55:00
3:15 PM,48.2,35.6,62,30.20,10.0,ESE,5.8,-,N/A,,Mostly Cloudy,110,2012-12-06 20:15:00
3:35 PM,48.2,33.8,58,30.21,10.0,ESE,8.1,-,N/A,,Overcast,120,2012-12-06 20:35:00
3:55 PM,46.4,33.8,62,30.21,10.0,ESE,8.1,-,N/A,,Overcast,120,2012-12-06 20:55:00
4:15 PM,46.4,33.8,62,30.21,10.0,ESE,8.1,-,N/A,,Overcast,120,2012-12-06 21:15:00
4:35 PM,44.6,33.8,66,30.21,10.0,ESE,6.9,-,N/A,,Overcast,120,2012-12-06 21:35:00
4:55 PM,44.6,32.0,61,30.21,10.0,ESE,6.9,-,N/A,,Overcast,110,2012-12-06 21:55:00
5:15 PM,44.6,33.8,66,30.21,10.0,ESE,8.1,-,N/A,,Overcast,120,2012-12-06 22:15:00
5:35 PM,44.6,33.8,66,30.21,10.0,ESE,8.1,-,N/A,,Overcast,120,2012-12-06 22:35:00
5:55 PM,42.8,32.0,66,30.22,10.0,ESE,5.8,-,N/A,,Overcast,110,2012-12-06 22:55:00
6:15 PM,42.8,33.8,70,30.22,10.0,ESE,5.8,-,N/A,,Overcast,120,2012-12-06 23:15:00
6:35 PM,42.8,33.8,70,30.22,10.0,SE,5.8,-,N/A,,Overcast,130,2012-12-06 23:35:00
6:55 PM,42.8,33.8,70,30.22,10.0,ESE,8.1,-,N/A,,Overcast,120,2012-12-06 23:55:00
7:15 PM,42.8,33.8,70,30.22,10.0,ESE,6.9,-,N/A,,Overcast,110,2012-12-07 00:15:00
7:35 PM,42.8,33.8,70,30.22,10.0,ESE,6.9,-,N/A,,Overcast,120,2012-12-07 00:35:00
7:55 PM,42.8,33.8,70,30.22,10.0,ESE,6.9,-,N/A,,Overcast,110,2012-12-07 00:55:00
8:15 PM,42.8,33.8,70,30.22,10.0,ESE,6.9,-,N/A,,Overcast,110,2012-12-07 01:15:00
8:35 PM,42.8,33.8,70,30.22,10.0,ESE,4.6,-,N/A,,Overcast,120,2012-12-07 01:35:00
8:55 PM,42.8,33.8,70,30.22,10.0,SE,4.6,-,N/A,,Light Drizzle,130,2012-12-07 01:55:00
9:35 PM,42.8,35.6,76,30.22,10.0,ESE,5.8,-,N/A,,Overcast,120,2012-12-07 02:35:00
9:55 PM,42.8,37.4,81,30.22,10.0,Calm,Calm,-,N/A,,Light Drizzle,0,2012-12-07 02:55:00
10:15 PM,41.0,37.4,87,30.22,10.0,Calm,Calm,-,N/A,,Drizzle,0,2012-12-07 03:15:00
10:35 PM,41.0,37.4,87,30.21,7.0,Calm,Calm,-,N/A,Rain,Rain,0,2012-12-07 03:35:00
10:55 PM,41.0,39.2,93,30.21,10.0,Calm,Calm,-,N/A,Rain,Rain,0,2012-12-07 03:55:00
11:15 PM,39.2,39.2,100,30.21,7.0,ESE,3.5,-,N/A,,Drizzle,110,2012-12-07 04:15:00
11:35 PM,39.2,39.2,100,30.20,10.0,Calm,Calm,-,N/A,,Drizzle,0,2012-12-07 04:35:00
11:55 PM,41.0,39.2,93,30.20,10.0,Calm,Calm,-,N/A,,Overcast,0,2012-12-07 04:55:00